Precipitable_Water
1.61 1.63 1.54 1.49 1.46 1.45 1.37 1.42 1.45 1.38 1.39 1.45 1.50 1.49 1.51 1.54 1.59 1.63 1.57 1.57 1.59 1.55 1.54 1.59 1.62 1.62 1.66 1.74 1.70 1.60 1.52 1.56 1.53 1.53 1.48 1.46 1.45 1.49 1.45 1.43 1.36 1.41
1.61 1.67 1.61 1.57 1.54 1.56 1.44 1.47 1.52 1.45 1.42 1.43 1.45 1.52 1.55 1.55 1.62 1.62 1.59 1.49 1.51 1.57 1.57 1.55 1.56 1.56 1.59 1.61 1.61 1.56 1.52 1.56 1.54 1.46 1.42 1.35 1.35 1.44 1.44 1.45 1.44 1.32
1.59 1.56 1.51 1.54 1.53 1.55 1.51 1.52 1.54 1.53 1.46 1.51 1.47 1.50 1.48 1.54 1.55 1.56 1.59 1.52 1.47 1.48 1.50 1.45 1.40 1.42 1.43 1.49 1.47 1.50 1.52 1.51 1.56 1.56 1.48 1.41 1.37 1.42 1.46 1.50 1.49 1.48
1.56 1.57 1.51 1.54 1.52 1.55 1.60 1.55 1.57 1.58 1.54 1.52 1.57 1.54 1.56 1.55 1.54 1.52 1.53 1.55 1.48 1.43 1.45 1.42 1.37 1.34 1.36 1.41 1.43 1.40 1.47 1.49 1.53 1.64 1.62 1.58 1.50 1.47 1.47 1.54 1.56 1.54
1.58 1.59 1.55 1.54 1.54 1.57 1.59 1.55 1.57 1.54 1.55 1.56 1.63 1.63 1.60 1.63 1.54 1.49 1.47 1.49 1.42 1.46 1.45 1.42 1.40 1.36 1.35 1.40 1.42 1.34 1.41 1.42 1.42 1.48 1.52 1.54 1.55 1.49 1.52 1.52 1.52 1.55
1.70 1.67 1.60 1.56 1.60 1.60 1.54 1.53 1.57 1.57 1.55 1.56 1.58 1.60 1.58 1.62 1.57 1.48 1.45 1.40 1.34 1.42 1.42 1.43 1.38 1.40 1.38 1.33 1.38 1.34 1.41 1.43 1.44 1.43 1.40 1.37 1.39 1.45 1.52 1.53 1.50 1.51
1.70 1.69 1.67 1.65 1.63 1.66 1.60 1.60 1.60 1.60 1.58 1.61 1.60 1.59 1.58 1.56 1.53 1.49 1.47 1.38 1.29 1.32 1.36 1.37 1.38 1.38 1.41 1.36 1.33 1.28 1.35 1.43 1.48 1.49 1.47 1.46 1.41 1.37 1.46 1.51 1.53 1.57
1.66 1.70 1.73 1.70 1.66 1.69 1.67 1.64 1.62 1.62 1.62 1.65 1.61 1.61 1.61 1.57 1.54 1.54 1.54 1.46 1.35 1.33 1.36 1.41 1.42 1.42 1.43 1.39 1.34 1.27 1.27 1.31 1.36 1.49 1.55 1.51 1.49 1.44 1.48 1.48 1.49 1.48
1.59 1.64 1.71 1.72 1.68 1.67 1.67 1.67 1.69 1.71 1.67 1.66 1.62 1.62 1.63 1.64 1.59 1.58 1.56 1.54 1.44 1.37 1.40 1.48 1.54 1.52 1.51 1.48 1.44 1.42 1.36 1.31 1.33 1.38 1.42 1.41 1.42 1.43 1.43 1.44 1.42 1.44
1.48 1.57 1.64 1.70 1.67 1.70 1.67 1.69 1.71 1.73 1.75 1.69 1.69 1.68 1.62 1.70 1.70 1.63 1.60 1.56 1.49 1.48 1.44 1.52 1.58 1.59 1.59 1.57 1.54 1.53 1.49 1.44 1.49 1.57 1.57 1.53 1.48 1.46 1.45 1.44 1.44 1.43
1.41 1.44 1.48 1.57 1.61 1.70 1.71 1.72 1.74 1.74 1.76 1.72 1.72 1.72 1.72 1.71 1.73 1.71 1.67 1.63 1.55 1.53 1.49 1.52 1.57 1.61 1.62 1.61 1.62 1.63 1.61 1.60 1.61 1.59 1.57 1.56 1.59 1.63 1.63 1.58 1.57 1.53
1.37 1.39 1.40 1.45 1.51 1.61 1.66 1.71 1.75 1.78 1.74 1.74 1.76 1.73 1.75 1.76 1.74 1.75 1.75 1.71 1.68 1.65 1.62 1.61 1.61 1.63 1.62 1.60 1.59 1.60 1.62 1.67 1.68 1.64 1.61 1.59 1.60 1.60 1.58 1.60 1.54 1.51
1.30 1.36 1.40 1.43 1.46 1.52 1.61 1.70 1.75 1.77 1.78 1.75 1.77 1.76 1.76 1.76 1.74 1.75 1.80 1.81 1.77 1.73 1.68 1.69 1.68 1.66 1.65 1.65 1.61 1.63 1.64 1.66 1.66 1.66 1.67 1.68 1.69 1.67 1.68 1.70 1.70 1.72
1.35 1.37 1.37 1.41 1.43 1.46 1.50 1.57 1.68 1.78 1.81 1.82 1.83 1.76 1.74 1.76 1.78 1.77 1.81 1.82 1.84 1.82 1.79 1.78 1.76 1.72 1.70 1.71 1.67 1.64 1.65 1.66 1.65 1.65 1.69 1.73 1.75 1.76 1.77 1.78 1.80 1.83
1.45 1.44 1.40 1.37 1.40 1.39 1.40 1.44 1.45 1.55 1.70 1.77 1.80 1.80 1.77 1.77 1.80 1.81 1.84 1.87 1.89 1.85 1.83 1.84 1.82 1.80 1.81 1.77 1.72 1.70 1.70 1.66 1.65 1.64 1.63 1.63 1.68 1.73 1.76 1.80 1.83 1.84
1.53 1.51 1.46 1.41 1.43 1.39 1.34 1.35 1.42 1.43 1.46 1.51 1.58 1.63 1.67 1.71 1.74 1.79 1.81 1.86 1.87 1.87 1.86 1.85 1.83 1.87 1.88 1.86 1.84 1.78 1.75 1.70 1.68 1.66 1.62 1.58 1.58 1.59 1.63 1.69 1.76 1.81
1.56 1.49 1.48 1.43 1.45 1.47 1.48 1.38 1.40 1.43 1.45 1.49 1.52 1.55 1.55 1.58 1.61 1.64 1.67 1.72 1.78 1.85 1.88 1.90 1.88 1.85 1.82 1.84 1.86 1.85 1.83 1.76 1.72 1.71 1.69 1.61 1.52 1.48 1.50 1.61 1.68 1.73
1.65 1.57 1.50 1.50 1.50 1.54 1.53 1.50 1.50 1.46 1.44 1.48 1.53 1.57 1.57 1.59 1.55 1.54 1.56 1.59 1.62 1.68 1.75 1.78 1.81 1.85 1.85 1.83 1.84 1.86 1.89 1.86 1.83 1.76 1.70 1.62 1.53 1.50 1.54 1.59 1.64 1.65
1.71 1.64 1.62 1.62 1.65 1.66 1.65 1.58 1.49 1.46 1.45 1.50 1.49 1.52 1.55 1.53 1.56 1.59 1.58 1.59 1.60 1.65 1.67 1.69 1.70 1.76 1.77 1.76 1.76 1.79 1.84 1.86 1.82 1.77 1.71 1.63 1.57 1.51 1.49 1.54 1.58 1.60
1.84 1.81 1.77 1.79 1.84 1.85 1.86 1.78 1.65 1.55 1.58 1.58 1.58 1.57 1.50 1.52 1.54 1.50 1.52 1.53 1.52 1.55 1.61 1.66 1.69 1.70 1.68 1.70 1.73 1.76 1.79 1.78 1.76 1.72 1.69 1.64 1.58 1.52 1.50 1.47 1.47 1.49
1.88 1.90 1.87 1.89 1.90 1.88 1.86 1.85 1.83 1.81 1.77 1.76 1.72 1.67 1.63 1.59 1.54 1.49 1.51 1.55 1.58 1.59 1.58 1.60 1.64 1.65 1.64 1.63 1.65 1.67 1.70 1.71 1.70 1.68 1.67 1.60 1.58 1.54 1.52 1.51 1.48 1.43
2.00 1.99 1.96 1.97 1.95 1.92 1.86 1.83 1.85 1.84 1.84 1.88 1.86 1.85 1.85 1.81 1.77 1.70 1.63 1.60 1.64 1.71 1.75 1.74 1.79 1.80 1.76 1.70 1.65 1.62 1.61 1.61 1.59 1.57 1.55 1.53 1.51 1.51 1.52 1.54 1.51 1.47
2.08 2.04 2.01 2.03 2.05 1.99 1.90 1.89 1.92 1.94 1.94 1.96 1.90 1.92 1.92 1.92 1.91 1.89 1.85 1.77 1.69 1.71 1.80 1.86 1.88 1.88 1.87 1.85 1.82 1.78 1.75 1.73 1.70 1.63 1.55 1.47 1.43 1.42 1.44 1.46 1.47 1.46
2.06 2.03 1.99 2.04 2.05 2.02 2.00 2.01 2.05 2.05 2.01 2.02 1.96 1.96 1.97 1.99 2.00 1.98 1.95 1.90 1.81 1.77 1.80 1.81 1.87 1.94 1.97 1.97 1.97 1.97 1.94 1.89 1.85 1.77 1.68 1.60 1.53 1.50 1.45 1.42 1.43 1.42
2.07 2.04 2.02 2.03 2.01 2.02 2.04 2.03 2.05 2.07 2.08 2.07 2.01 1.96 1.94 1.99 2.02 1.96 1.92 1.91 1.89 1.88 1.88 1.85 1.84 1.90 1.96 1.99 1.99 2.01 2.03 2.04 1.96 1.85 1.76 1.72 1.67 1.61 1.57 1.49 1.43 1.42
2.08 2.05 1.98 1.97 1.99 1.97 1.99 2.01 2.08 2.10 2.10 2.05 2.02 2.02 1.99 1.97 1.98 1.97 1.93 1.93 1.95 1.94 1.92 1.94 1.92 1.92 1.94 1.94 1.92 1.91 1.95 2.03 2.03 1.89 1.78 1.77 1.78 1.73 1.65 1.60 1.53 1.46
Wind_Speed
11 10 10 10 10 10 10 10 10 10 9 9 9 9 9 9 9 9 9 9 9 9 10 10 10 10 9 9 9 8 7 7 6 6 5 5 4 4 3 2 2 2
11 11 11 11 10 10 10 10 10 10 10 9 9 9 9 9 9 9 8 9 9 9 9 9 9 9 9 8 8 8 7 6 6 5 4 4 4 3 3 2 2 2
12 12 11 11 11 10 10 10 10 10 10 9 9 9 9 9 8 8 8 8 8 8 9 8 8 9 8 8 7 7 6 6 5 5 4 4 4 3 3 2 2 2
12 12 12 11 11 11 11 10 10 10 10 9 9 9 9 9 9 8 8 8 8 8 8 8 8 8 8 8 7 7 6 6 5 5 4 4 4 3 3 3 3 3
13 12 12 12 11 11 11 11 10 10 10 10 9 9 9 9 9 9 9 8 8 8 8 8 8 8 8 8 7 7 6 6 5 5 4 4 4 4 4 3 4 4
13 13 12 12 12 11 11 11 11 10 10 10 9 9 9 9 9 9 9 9 8 8 8 8 8 8 8 8 7 7 7 6 6 6 6 5 5 5 5 4 5 5
14 13 13 12 12 12 12 11 11 10 10 10 9 9 9 9 9 9 9 9 9 9 9 8 8 8 8 8 8 8 7 7 6 6 6 6 6 6 6 6 5 6
14 14 14 13 13 12 12 12 11 10 10 10 10 10 10 10 10 9 9 9 9 9 9 8 8 8 8 8 8 7 7 7 7 6 6 6 6 6 6 6 6 6
15 15 14 14 13 13 13 12 11 11 11 11 10 10 10 10 10 10 9 9 9 9 9 8 8 8 8 8 8 8 7 7 7 7 7 7 7 7 7 7 7 7
16 15 15 15 14 14 14 13 12 12 12 11 11 10 10 10 10 10 10 10 9 9 9 9 9 9 9 8 8 8 8 8 8 8 7 7 7 7 7 7 7 7
16 16 16 16 15 15 14 14 13 13 13 12 12 11 11 10 10 10 10 10 10 10 10 10 10 10 9 9 9 8 8 8 8 8 8 8 8 7 7 7 7 7
17 16 16 16 16 15 15 15 14 14 13 13 13 12 12 11 11 11 11 11 11 11 11 11 10 10 10 10 9 9 9 9 9 9 9 9 8 8 8 8 8 8
17 16 16 16 16 15 15 15 15 15 14 14 14 13 13 13 12 12 12 12 12 12 11 11 11 11 11 11 10 10 10 9 9 9 9 9 9 9 9 9 8 8
18 17 16 16 15 15 15 15 15 15 15 15 15 14 14 14 14 13 13 13 13 12 12 12 12 12 12 11 11 11 11 10 10 10 10 10 10 10 10 10 10 10
18 17 17 16 16 16 16 16 16 16 16 16 16 15 15 15 15 15 14 14 14 13 13 13 13 12 12 12 12 12 12 12 11 11 11 11 11 11 11 11 11 10
18 18 17 17 16 17 17 17 17 17 17 17 17 16 16 15 16 16 15 15 15 14 14 14 14 13 13 13 13 13 13 13 12 12 12 12 12 12 12 12 12 11
19 18 18 17 17 17 17 18 18 17 18 18 18 18 17 17 17 17 16 16 16 15 15 14 14 14 14 14 14 14 14 14 13 13 13 13 13 13 12 12 12 12
18 18 19 19 18 18 17 17 18 18 17 18 18 19 18 17 17 17 17 17 16 16 15 15 15 15 15 15 15 15 15 15 14 14 14 13 13 13 13 13 13 12
19 19 20 20 20 19 18 18 18 18 18 17 18 18 18 17 17 18 17 17 16 16 16 16 16 16 16 16 16 16 16 16 16 16 15 15 14 14 14 14 14 13
21 21 21 21 21 21 21 19 19 19 19 19 18 18 18 19 18 18 18 17 17 17 17 17 17 17 17 17 17 17 17 17 17 17 17 16 16 16 16 15 15 15
23 22 22 21 21 22 22 22 22 21 20 20 20 19 19 19 20 19 19 19 18 18 19 18 18 18 18 18 18 18 18 18 18 18 17 17 17 16 16 16 16 16
23 22 22 22 22 22 22 22 23 23 22 22 22 21 21 21 21 20 20 20 20 20 20 20 19 19 19 19 19 19 19 19 19 19 19 18 18 18 18 17 17 17
23 23 23 23 23 23 23 22 23 23 23 23 22 22 22 22 21 21 21 21 21 21 21 21 20 20 20 20 20 20 20 20 20 20 20 19 19 19 19 19 19 19
24 24 24 24 23 23 23 22 22 23 23 23 23 23 23 23 23 23 22 22 21 21 21 22 22 21 21 21 21 21 21 21 20 20 20 20 20 20 20 20 20 19
23 23 22 23 23 22 22 22 22 22 23 23 22 22 22 23 23 23 23 23 22 22 22 23 23 23 22 22 22 22 22 22 22 22 21 21 21 21 21 21 20 20
20 20 20 20 21 21 22 22 22 21 22 22 21 21 21 21 21 22 22 22 22 22 23 23 23 23 23 23 23 23 23 23 23 23 23 22 22 21 21 21 21 21
Wind_Direction
175 173 170 169 170 168 167 167 166 166 165 163 162 161 160 161 160 158 158 159 159 158 158 158 159 158 157 157 157 157 158 161 163 164 165 170 176 177 181 190 193 198
178 177 176 174 174 173 173 172 170 169 170 168 167 167 164 164 164 164 165 164 164 164 163 164 166 166 165 164 164 164 166 167 168 169 171 179 187 194 196 197 203 217
182 181 180 179 179 179 178 177 175 174 173 172 172 172 170 169 170 171 172 170 169 170 171 171 174 175 175 175 175 175 175 177 178 179 182 188 195 204 208 209 223 238
186 185 184 182 183 183 182 181 180 179 178 178 178 178 176 175 175 176 178 178 177 178 178 179 182 183 184 185 186 187 187 190 194 192 193 200 207 216 220 225 234 240
190 189 188 187 187 186 185 185 185 184 184 184 184 183 183 183 182 182 185 187 186 188 189 188 189 191 193 194 196 198 199 203 209 210 212 218 223 230 233 236 240 242
194 193 192 191 190 188 188 188 188 188 188 189 189 188 188 189 190 189 191 193 193 195 197 197 197 198 200 200 204 208 209 211 219 222 226 232 236 239 241 244 249 251
196 196 195 194 193 192 191 192 193 192 191 193 194 193 191 192 195 195 196 197 198 201 202 201 201 203 205 206 208 214 217 219 224 226 229 237 241 243 244 247 250 253
200 200 199 198 197 196 195 195 196 195 194 195 197 198 198 198 199 201 201 201 201 204 206 206 207 209 210 212 213 216 221 225 227 229 233 238 241 244 247 248 249 253
203 203 202 201 201 201 200 200 200 199 198 199 200 202 204 204 204 205 205 205 205 206 208 210 213 215 215 217 220 221 225 229 231 233 237 240 242 246 249 251 252 255
205 206 205 204 205 205 205 204 205 204 204 204 205 206 208 209 209 209 209 210 210 210 212 212 215 219 221 221 224 227 228 230 233 237 239 240 243 246 249 251 254 256
208 208 208 208 208 208 209 208 209 210 210 209 209 209 211 213 214 215 215 216 216 216 217 219 220 224 226 227 229 231 231 233 235 238 241 243 246 250 251 254 256 258
211 211 210 211 211 211 212 212 213 214 215 214 214 215 215 217 219 220 219 220 221 222 223 225 226 229 230 231 233 234 235 236 237 239 242 244 247 251 253 255 257 260
214 213 213 214 214 214 214 215 216 217 218 217 218 219 219 221 223 222 222 224 226 227 228 228 229 231 233 234 235 237 238 239 239 242 244 245 247 250 253 256 258 260
215 216 216 216 217 217 218 219 219 220 221 221 221 223 224 224 224 225 226 228 228 229 231 231 231 232 234 235 237 238 240 242 242 244 247 248 251 253 254 257 259 261
216 218 219 220 221 221 222 223 223 224 225 225 225 227 228 226 226 227 229 229 231 232 233 234 235 235 236 238 239 239 241 244 247 248 250 251 254 256 258 259 260 263
217 219 221 222 224 225 225 226 227 227 228 228 228 229 230 229 228 229 230 231 233 235 235 236 238 239 241 241 241 242 244 246 248 250 251 253 256 259 261 261 261 263
220 222 223 223 226 228 229 228 229 229 229 230 230 231 232 232 231 231 232 234 236 237 239 239 241 243 245 245 245 246 247 247 248 249 251 254 256 259 261 262 262 263
225 227 227 227 228 231 232 231 231 231 231 231 232 233 234 235 234 234 235 237 237 238 239 240 242 246 248 248 248 248 249 250 250 251 252 255 257 260 262 264 264 263
230 231 231 231 231 232 234 234 233 234 234 233 233 233 234 235 235 235 236 237 238 238 240 240 243 246 249 250 250 250 251 252 252 253 254 256 259 262 264 263 263 263
233 234 234 234 234 235 236 236 235 235 236 237 236 234 234 236 236 236 237 238 239 240 242 242 244 248 250 251 251 251 252 252 252 254 256 258 261 262 262 261 261 262
236 236 236 236 236 236 237 237 237 237 237 238 238 238 238 239 240 240 240 241 242 243 243 244 246 249 251 252 252 252 253 253 253 255 257 259 261 262 262 262 262 262
237 237 237 238 238 238 239 239 239 238 239 239 240 241 242 242 242 243 243 244 245 245 244 245 247 250 251 252 253 253 253 253 254 256 257 259 260 261 262 262 262 263
240 240 241 241 241 241 241 242 240 239 240 241 241 242 244 244 244 245 245 246 246 246 246 246 247 250 252 253 253 253 254 254 255 256 256 257 259 260 261 261 262 263
244 243 243 242 241 241 241 241 240 240 241 242 243 244 245 246 246 247 247 247 245 245 247 248 249 251 253 253 253 253 254 255 256 257 257 257 258 259 260 260 262 263
243 243 242 239 239 241 242 241 241 240 241 243 245 246 246 246 245 245 246 246 246 246 248 249 251 252 253 254 255 255 255 255 256 256 257 257 258 258 259 261 262 263
241 241 240 238 238 241 243 243 242 242 242 244 245 245 244 243 242 243 244 246 247 248 249 251 252 254 255 255 256 256 256 256 256 256 255 256 257 258 260 261 261 262